Hourly Weather Roundup
Issued by NWS Central Illinois

Home | Current Version | Previous Version | Text Only | Print | Product List | Glossary On
Versions: 1 2 3 4 5 6 7 8 9 10 11 12 13 14 15 16 17 18 19 20 21 22 23 24 25 26 27 28 29 30 31 32 33 34 35 36 37 38 39 40 41 42 43 44 45 46 47 48 49 50
000
NZUS43 KILX 261210
HWRILX

Area Weather Roundup
National Weather Service Lincoln IL
700 AM CDT FRI MAY 26 2017

NOTE:  "FAIR" indicates few or no clouds below 12,000 feet, with
       no sigificant weather and/or obstructions to visibility.


CITY           SKY/WX    TMP DP  RH WIND       PRES   REMARKS
Bloomington    CLOUDY    58  55  90 SE8       29.84S
6HR MIN TEMP:  53; 6HR MAX TEMP:  58;

Champaign      CLOUDY    58  55  90 SE8       29.86R FOG
6HR MIN TEMP:  53; 6HR MAX TEMP:  58;

Danville       CLOUDY    54  54 100 CALM      29.85S FOG
6HR MIN TEMP:  49; 6HR MAX TEMP:  54;

Decatur        CLOUDY    59  56  89 SE7       29.83R
6HR MIN TEMP:  55; 6HR MAX TEMP:  59;

Effingham      SUNNY     58  57  97 E5        29.87R
6HR MIN TEMP:  54; 6HR MAX TEMP:  58;

Flora          SUNNY     60  56  87 SE3       29.86R
6HR MIN TEMP:  55; 6HR MAX TEMP:  60;

Galesburg      CLOUDY    60  55  82 E8        29.78R
6HR MIN TEMP:  57; 6HR MAX TEMP:  61;

Jacksonville   MOSUNNY   60  55  81 MISG      29.80R
6HR MIN TEMP:  57; 6HR MAX TEMP:  62;

Lacon          CLOUDY    57  55  92 SE7       29.81S
6HR MIN TEMP:  53; 6HR MAX TEMP:  57;

Lawrenceville  SUNNY     59  57  93 SE3       29.87S
6HR MIN TEMP:  55; 6HR MAX TEMP:  59;

Litchfield     MOSUNNY   59  55  85 SE8       29.82R
6HR MIN TEMP:  56; 6HR MAX TEMP:  60;

$$


CITY           SKY/WX    TMP DP  RH WIND       PRES   REMARKS
Lincoln        CLOUDY    60  57  89 E3        29.81S
6HR MIN TEMP:  57; 6HR MAX TEMP:  60;

Macomb         MOSUNNY   59  56  89 SE9       29.81R
6HR MIN TEMP:  56; 6HR MAX TEMP:  60;

Mattoon        CLOUDY    58  57  97 SE7       29.85R
6HR MIN TEMP:  55; 6HR MAX TEMP:  58;

Mt Carmel AP   SUNNY     60  56  88 E3        29.87R
6HR MIN TEMP:  55; 6HR MAX TEMP:  60;

Olney-Noble AP SUNNY     59  59 100 SE3       29.87R
Paris AP       CLOUDY    58  56  95 SE3       29.88R
6HR MIN TEMP:  53; 6HR MAX TEMP:  58;

Peoria         CLOUDY    59  56  89 E6        29.81R
6HR MIN TEMP:  55; 6HR MAX TEMP:  59;

Pontiac        MOSUNNY   56  56  97 E7        29.86R FOG
6HR MIN TEMP:  53; 6HR MAX TEMP:  56;

Rantoul        SUNNY     58  56  93 SE3       29.86R FOG
6HR MIN TEMP:  53; 6HR MAX TEMP:  58;

Robinson       SUNNY     56  56  99 CALM      29.88R FOG
6HR MIN TEMP:  53; 6HR MAX TEMP:  56;

Springfield    SUNNY     61  57  87 SE7       29.81R
6HR MIN TEMP:  57; 6HR MAX TEMP:  61; 6HR PCP: TRACE;

Taylorville    CLOUDY    60  55  85 SE7       29.82R
6HR MIN TEMP:  56; 6HR MAX TEMP:  60;

$$

...REGIONAL REPORTS...


CITY           SKY/WX    TMP DP  RH WIND       PRES   REMARKS
Chicago O`Hare PTSUNNY   58  52  80 CALM      29.84S
Kankakee       MOSUNNY   57  56  98 CALM      29.87R FOG
Moline         SUNNY     59  55  87 E7        29.78R
Mount Sterling CLOUDY    58  54  86 S3        29.79R
Mount Vernon     N/A     61  56  83 CALM      29.85R
Pittsfield     CLOUDY    61  56  83 SE6       29.80R
Quincy         CLOUDY    62  54  74 S8        29.77R
Rockford       PTSUNNY   57  54  89 S5        29.84S FOG
$$


CITY           SKY/WX    TMP DP  RH WIND       PRES   REMARKS
Burlington     CLOUDY    60  55  83 SE6       29.77R
Cedar Rapids   PTSUNNY   59  56  89 E12       29.73R
Des Moines     CLOUDY    61  53  75 E6        29.69R
Kirksville     CLOUDY    60  57  89 SE10      29.66R
Ottumwa        LGT RAIN  58  56  93 CALM      29.69F
St Louis       CLOUDY    67  56  67 S5        29.81R
$$


CITY           SKY/WX    TMP DP  RH WIND       PRES   REMARKS
Terre Haute    CLOUDY    57  55  93 CALM      29.88R FOG
Evansville     SUNNY     61  55  81 CALM      29.89S
Indianapolis   CLOUDY    57  54  89 CALM      29.90R FOG
Lafayette      CLOUDY    53  53 100 CALM      29.88R FOG
Madison        PTSUNNY   55  53  93 S3        29.82R
Milwaukee      PTSUNNY   56  54  93 E3        29.86R FOG
$$






USA.gov is the U.S. government's official web portal to all federal, state and local government web resources and services.